• Em Portugal
  • Lista de países
  • Para 7 dias
  • Temperatura da água
  • Mapas de satélite
  • Mapa do tempo
  • Widgets de tempo
  • user-avatar
    Iniciar Sessão

    Previsão horária em Sivkova

    Hoje, 28 Maio, Segunda-feira

    Tempo Temperatura Precipitação Vento Pressão Humidade
    00:00 +12°C° 0 mm 2 m/s 749 mmHg 84%
    01:00 +12°C° 0 mm 2 m/s 749 mmHg 85%
    02:00 +12°C° 0 mm 2 m/s 749 mmHg 87%
    03:00 +12°C° 0 mm 2 m/s 749 mmHg 87%
    04:00 +13°C° 0 mm 2 m/s 749 mmHg 88%
    05:00 +13°C° 0 mm 2 m/s 749 mmHg 88%
    06:00 +15°C° 0 mm 2 m/s 750 mmHg 83%
    07:00 +17°C° 0 mm 3 m/s 750 mmHg 79%
    08:00 +18°C° 0 mm 3 m/s 750 mmHg 74%
    09:00 +19°C° 0 mm 3 m/s 751 mmHg 70%
    10:00 +20°C° 0 mm 4 m/s 751 mmHg 65%
    11:00 +21°C° 0 mm 4 m/s 751 mmHg 61%
    12:00 +21°C° 0 mm 4 m/s 751 mmHg 58%
    13:00 +21°C° 0 mm 4 m/s 751 mmHg 56%
    14:00 +21°C° 0 mm 4 m/s 751 mmHg 54%
    15:00 +21°C° 0 mm 4 m/s 751 mmHg 56%
    16:00 +20°C° 0 mm 4 m/s 751 mmHg 58%
    17:00 +19°C° 0 mm 4 m/s 751 mmHg 61%
    18:00 +17°C° 0 mm 3 m/s 752 mmHg 65%
    19:00 +14°C° 0 mm 3 m/s 752 mmHg 69%
    20:00 +12°C° 0 mm 3 m/s 752 mmHg 74%
    21:00 +11°C° 0 mm 3 m/s 753 mmHg 73%
    22:00 +10°C° 0 mm 3 m/s 753 mmHg 73%
    23:00 +9°C° 0 mm 2 m/s 754 mmHg 73%

    Amanhã, 29 Maio, Terça-feira

    Tempo Temperatura Precipitação Vento Pressão Humidade
    00:00 +9°C° 0 mm 2 m/s 754 mmHg 73%
    01:00 +8°C° 0 mm 2 m/s 754 mmHg 72%
    02:00 +7°C° 0 mm 2 m/s 755 mmHg 72%
    03:00 +8°C° 0 mm 2 m/s 755 mmHg 72%
    04:00 +8°C° 0 mm 2 m/s 755 mmHg 73%
    05:00 +9°C° 0 mm 1 m/s 755 mmHg 74%
    06:00 +11°C° 0 mm 1 m/s 755 mmHg 68%
    07:00 +13°C° 0 mm 1 m/s 754 mmHg 62%
    08:00 +15°C° 0 mm 1 m/s 754 mmHg 57%
    09:00 +18°C° 0 mm 1 m/s 754 mmHg 53%
    10:00 +19°C° 0 mm 1 m/s 754 mmHg 50%
    11:00 +21°C° 0 mm 1 m/s 754 mmHg 46%
    12:00 +21°C° 0 mm 1 m/s 753 mmHg 45%
    13:00 +22°C° 0 mm 1 m/s 752 mmHg 44%
    14:00 +22°C° 0 mm 1 m/s 752 mmHg 43%
    15:00 +22°C° 0 mm 1 m/s 751 mmHg 47%
    16:00 +22°C° 0 mm 1 m/s 751 mmHg 51%
    17:00 +20°C° 0 mm 2 m/s 750 mmHg 54%
    18:00 +18°C° 0 mm 2 m/s 750 mmHg 61%
    19:00 +16°C° 0 mm 2 m/s 749 mmHg 67%
    20:00 +14°C° 0 mm 2 m/s 749 mmHg 74%
    21:00 +14°C° 0 mm 2 m/s 749 mmHg 77%
    22:00 +12°C° 0 mm 3 m/s 749 mmHg 79%
    23:00 +11°C° 0 mm 3 m/s 749 mmHg 82%

    Depois de amanhã, 30 Maio, Quarta-feira

    Tempo Temperatura Precipitação Vento Pressão Humidade
    00:00 +11°C° 0 mm 3 m/s 748 mmHg 84%
    01:00 +11°C° 0 mm 3 m/s 748 mmHg 85%
    02:00 +10°C° 0 mm 3 m/s 748 mmHg 87%
    03:00 +11°C° 0 mm 3 m/s 747 mmHg 86%
    04:00 +11°C° 0 mm 4 m/s 747 mmHg 84%
    05:00 +12°C° 0 mm 4 m/s 746 mmHg 83%
    06:00 +14°C° 0 mm 4 m/s 746 mmHg 79%
    07:00 +17°C° 0 mm 4 m/s 746 mmHg 76%
    08:00 +19°C° 0 mm 5 m/s 745 mmHg 72%
    09:00 +20°C° 0 mm 5 m/s 745 mmHg 69%
    10:00 +22°C° 0 mm 5 m/s 744 mmHg 66%
    11:00 +23°C° 0 mm 5 m/s 744 mmHg 62%
    12:00 +24°C° 0,1 mm 6 m/s 743 mmHg 62%
    13:00 +24°C° 0,1 mm 6 m/s 743 mmHg 62%
    14:00 +26°C° 0,1 mm 6 m/s 742 mmHg 62%
    15:00 +24°C° 0,5 mm 6 m/s 742 mmHg 68%
    16:00 +23°C° 0,5 mm 5 m/s 741 mmHg 74%
    17:00 +22°C° 0,5 mm 5 m/s 741 mmHg 80%
    18:00 +21°C° 0,2 mm 5 m/s 740 mmHg 84%
    19:00 +20°C° 0,2 mm 4 m/s 740 mmHg 87%
    20:00 +19°C° 0,2 mm 4 m/s 740 mmHg 91%
    21:00 +18°C° 0 mm 4 m/s 740 mmHg 92%
    22:00 +18°C° 0 mm 4 m/s 739 mmHg 94%
    23:00 +17°C° 0 mm 3 m/s 739 mmHg 95%

    31 Maio, Quinta-feira

    Tempo Temperatura Precipitação Vento Pressão Humidade
    00:00 +17°C° 0 mm 3 m/s 738 mmHg 95%
    01:00 +17°C° 0 mm 3 m/s 738 mmHg 95%
    02:00 +17°C° 0 mm 3 m/s 738 mmHg 95%
    03:00 +16°C° 0 mm 3 m/s 738 mmHg 95%
    04:00 +16°C° 0 mm 3 m/s 738 mmHg 95%
    05:00 +16°C° 0 mm 3 m/s 738 mmHg 95%
    06:00 +17°C° 0,1 mm 3 m/s 738 mmHg 90%
    07:00 +17°C° 0,1 mm 4 m/s 738 mmHg 86%
    08:00 +18°C° 0,1 mm 4 m/s 738 mmHg 82%
    09:00 +17°C° 0,2 mm 5 m/s 738 mmHg 76%
    10:00 +17°C° 0,2 mm 5 m/s 738 mmHg 69%
    11:00 +19°C° 0,2 mm 6 m/s 739 mmHg 63%
    12:00 +19°C° 0 mm 5 m/s 739 mmHg 60%
    13:00 +19°C° 0 mm 5 m/s 739 mmHg 57%
    14:00 +20°C° 0 mm 5 m/s 739 mmHg 54%
    15:00 +19°C° 0 mm 5 m/s 739 mmHg 57%
    16:00 +17°C° 0 mm 5 m/s 739 mmHg 60%
    17:00 +18°C° 0 mm 4 m/s 740 mmHg 62%
    18:00 +15°C° 0 mm 4 m/s 740 mmHg 64%
    19:00 +14°C° 0 mm 4 m/s 741 mmHg 66%
    20:00 +13°C° 0 mm 4 m/s 741 mmHg 67%
    21:00 +12°C° 0 mm 4 m/s 742 mmHg 66%
    22:00 +11°C° 0 mm 4 m/s 742 mmHg 65%
    23:00 +10°C° 0 mm 4 m/s 742 mmHg 64%

    1 Junho, Sexta-feira

    Tempo Temperatura Precipitação Vento Pressão Humidade
    00:00 +8°C° 0 mm 4 m/s 743 mmHg 64%
    01:00 +7°C° 0 mm 4 m/s 743 mmHg 64%
    02:00 +6°C° 0 mm 4 m/s 743 mmHg 64%
    03:00 +6°C° 0 mm 4 m/s 743 mmHg 66%
    04:00 +6°C° 0 mm 4 m/s 743 mmHg 68%
    05:00 +6°C° 0 mm 4 m/s 744 mmHg 70%
    06:00 +7°C° 0 mm 5 m/s 744 mmHg 66%
    07:00 +9°C° 0 mm 5 m/s 744 mmHg 62%
    08:00 +10°C° 0 mm 5 m/s 745 mmHg 58%
    09:00 +11°C° 0 mm 6 m/s 745 mmHg 56%
    10:00 +13°C° 0 mm 6 m/s 745 mmHg 54%
    11:00 +13°C° 0 mm 6 m/s 745 mmHg 51%
    12:00 +14°C° 0 mm 6 m/s 745 mmHg 51%
    13:00 +14°C° 0 mm 6 m/s 745 mmHg 51%
    14:00 +14°C° 0 mm 6 m/s 745 mmHg 51%
    15:00 +14°C° 0 mm 5 m/s 745 mmHg 54%
    16:00 +13°C° 0 mm 5 m/s 745 mmHg 58%
    17:00 +12°C° 0 mm 4 m/s 745 mmHg 61%
    18:00 +11°C° 0 mm 4 m/s 746 mmHg 62%
    19:00 +10°C° 0 mm 4 m/s 746 mmHg 63%
    20:00 +8°C° 0 mm 4 m/s 746 mmHg 64%
    21:00 +8°C° 0 mm 4 m/s 747 mmHg 64%
    22:00 +7°C° 0 mm 4 m/s 747 mmHg 65%
    23:00 +6°C° 0 mm 4 m/s 747 mmHg 65%

    2 Junho, Sábado

    Tempo Temperatura Precipitação Vento Pressão Humidade
    00:00 +5°C° 0 mm 4 m/s 747 mmHg 67%
    01:00 +5°C° 0 mm 4 m/s 747 mmHg 68%
    02:00 +4°C° 0 mm 4 m/s 747 mmHg 69%
    03:00 +4°C° 0 mm 4 m/s 748 mmHg 70%
    04:00 +4°C° 0 mm 4 m/s 748 mmHg 71%
    05:00 +5°C° 0 mm 4 m/s 748 mmHg 72%
    06:00 +6°C° 0 mm 5 m/s 748 mmHg 67%
    07:00 +8°C° 0 mm 5 m/s 748 mmHg 61%
    08:00 +10°C° 0 mm 6 m/s 749 mmHg 56%
    09:00 +11°C° 0 mm 6 m/s 748 mmHg 54%
    10:00 +13°C° 0 mm 6 m/s 748 mmHg 53%
    11:00 +14°C° 0 mm 6 m/s 748 mmHg 51%
    12:00 +14°C° 0 mm 5 m/s 748 mmHg 52%
    13:00 +15°C° 0 mm 5 m/s 748 mmHg 52%
    14:00 +15°C° 0 mm 5 m/s 747 mmHg 52%
    15:00 +15°C° 0 mm 5 m/s 747 mmHg 54%
    16:00 +15°C° 0 mm 4 m/s 747 mmHg 57%
    17:00 +15°C° 0 mm 4 m/s 747 mmHg 59%
    18:00 +13°C° 0 mm 3 m/s 747 mmHg 65%
    19:00 +12°C° 0 mm 2 m/s 747 mmHg 72%
    20:00 +9°C° 0 mm 2 m/s 747 mmHg 78%
    21:00 +9°C° 0 mm 2 m/s 748 mmHg 79%
    22:00 +9°C° 0 mm 1 m/s 748 mmHg 81%
    23:00 +8°C° 0 mm 1 m/s 748 mmHg 82%
    Mostrar mais